Home   Weather   Hyderabad   Past weeks

Flag for India Past Weather in Hyderabad, Telangana, India — Yesterday and Last 2 Weeks

Now
73 °F

Fog.


Feels Like: 73 °F
Forecast: 75 / 82 °F
Wind: 6 mph from Northwest

Location: Hyderabad Airport

Current Time: Sep 25, 2016 at 7:35:45 PM

Latest Report: Sep 25, 2016 at 7:00 PM


Visibility: 2 mi

Pressure: 29.71 "Hg (28.02 "Hg at 507m altitude)

Humidity: 83%

Dew Point: 68 °F

Location of HyderabadLocation

Past Weather in Hyderabad — Graph

°F

Hyderabad Temperature Yesterday

Maximum temperature yesterday: 75 °F (at 1:30 PM)
Minimum temperature yesterday: 70 °F (at 6:30 AM)
Average temperature yesterday: 73 °F

High & Low Weather Summary for the Past Weeks

 TemperatureHumidityPressure
High84 °F (Sep 16, 3:30 PM)94% (Sep 13, 9:30 AM)30.07 "Hg (Sep 13, 9:30 AM)
Low64 °F (Sep 13, 9:30 AM)58% (Sep 18, 3:30 PM)29.59 "Hg (Sep 24, 3:30 PM)
Average74 °F82%29.78 "Hg
* Reported Sep 10 6:00 PM — Sep 25 6:00 PM, Hyderabad, Weather by CustomWeather, © 2016

Note: Actual official high and low records may vary slightly from our data, if they occured in-between our weather recording intervals... More about our weather records

Advertising

Hyderabad Weather History for the Previous 24 Hours

Scroll right to see more
 ConditionsComfort  
Time TempWeatherWind HumidityBarometerVisibility
6:00 PM
Sun, Sep 25
73 °FFog.3 mph89%29.71 "Hg2 mi
5:30 PM75 °FFog.3 mph83%29.68 "Hg2 mi
5:00 PM75 °FDrizzle. Cloudy.5 mph83%29.68 "Hg2 mi
4:30 PM75 °FDrizzle. Cloudy.5 mph83%29.68 "Hg2 mi
4:00 PM75 °FFog.5 mph83%29.68 "Hg2 mi
3:30 PM75 °FFog.5 mph83%29.68 "Hg2 mi
3:00 PM75 °FFog.6 mph83%29.68 "Hg2 mi
2:30 PM75 °FFog.5 mph83%29.71 "Hg2 mi
2:00 PM77 °FBroken clouds.5 mph79%29.71 "Hg3 mi
10:30 AM73 °FBroken clouds.7 mph89%29.74 "Hg2 mi
10:00 AM73 °FBroken clouds.6 mph89%29.74 "Hg2 mi
9:30 AM73 °FBroken clouds.7 mph89%29.74 "Hg2 mi
8:30 AM73 °FBroken clouds.5 mph89%29.71 "Hg2 mi
7:30 AM72 °FBroken clouds.7 mph88%29.71 "Hg2 mi
7:00 AM72 °FBroken clouds.7 mph88%29.71 "Hg2 mi
9:00 PM
Sat, Sep 24
72 °FDrizzle. Overcast.3 mph88%29.68 "Hg2 mi
8:30 PM72 °FDrizzle. Overcast.3 mph88%29.68 "Hg2 mi
8:00 PM72 °FDrizzle. Overcast.3 mph88%29.68 "Hg2 mi
7:30 PM72 °FDrizzle. Overcast.3 mph88%29.68 "Hg2 mi
7:00 PM72 °FDrizzle. Overcast.3 mph88%29.65 "Hg2 mi
Weather by CustomWeather, © 2016

See weather overviewHow to use our weather pages